Weather in Matveyevka

Russia / Orenburg Oblast     52°09′20″N   53°17′03″E
temp.,
°C
wind,
m/s
gust,
m/s
humid.,
%
clouds,
%
prec.,
mm/h
press.,
hPa
HPBL,
m
27 november, sat
sat2723:00−4ssw6149545 0.0 1029339
02:00−4ssw614936 0.0 1030349
05:00−7ssw411905 0.0 1030223
08:00−9s411926 0.0 1030165
11:00−7s3119746 0.0 1031213
14:00−5s310855 0.0 1031242
17:00−8sse36865 0.0 103075
20:00−11sse37885 0.0 103087
28 november, sun
sun2823:00−13sse37895 0.0 103076
02:00−12sse410875 0.0 1029122
05:00−10sse4128362 0.0 1028165
08:00−8sse5138499 0.0 1027238
11:00−6sse71582100 0.0 1026281
14:00−3sse71582100 0.0 1024363
17:00−2sse71381100 0.0 1024345
20:00−3sse61280100 0.0 1023286
29 november, mon
mon2923:00−3sse51182100 0.0 1024267
02:00−3s41085100 0.0 1024274
05:00−2sse3887100 0.0 1024222
08:00−2s3887100 0.0 1024223
11:00−1sse378794 0.1 1025213
14:00−1s4985100 0.0 1025258
17:00−1sse388697 0.0 1024217
20:00−2sse498495 0.0 1024191
30 november, tue
tue3023:00−5sse411835 0.0 1023164
02:00−6sse51480100 0.0 1022207
05:00−5sse71675100 0.0 1020268
08:00−4sse81875100 0.0 1016313
11:00−2sse92174100 0.0 1013446
14:000sse92177100 0.0 1011528
17:00+2sse112377100 0.0 1007570
20:00+2s112282100 0.4 1005546
1 december, wed
wed123:00+1s91991100 4.0 1004554
02:00+1s81595100 3.0 1003422
05:00+1sse71296100 3.1 1002322
08:00+1sse61297100 0.3 1001293
11:00+1sse61291100 0.4 999289
14:00+1se51195100 0.1 997329
17:00+1sse61291100 0.1 994380
20:00+1sse71499100 6.6 991449